Theta_e
313 316 317 317 318 318 316 315 315 315 313 313 315 314 314 315 313 314 312 306 305 308 309 310 310 310 311 311 312 312 312 311 311 311 310 310 310 309 309 308 306 306 307 307 306 306 307 306 305 303 302 300 299 298 298 298 298 298 298 297 297 296 296 296 296 296 296 296 296 296 296 295 295 295 295 295 295 294 294 294 293 293 293 293 293 292
312 316 318 318 318 316 314 313 312 311 311 312 314 314 314 314 313 313 310 305 305 307 309 310 310 310 310 311 312 312 312 312 312 312 311 311 311 310 310 308 307 307 306 305 304 305 305 305 304 302 301 300 299 298 297 297 297 297 297 297 297 296 296 296 296 296 296 296 296 296 295 295 295 295 295 294 294 293 293 293 293 293 293 293 292 292
314 317 317 316 314 311 309 308 308 310 310 311 312 313 313 314 313 312 309 305 305 307 310 311 309 310 311 311 312 312 312 312 312 313 312 312 312 311 311 309 307 306 305 304 304 304 304 305 304 302 301 299 298 298 298 297 297 297 297 296 296 296 296 295 295 295 295 295 295 295 295 295 295 295 294 293 293 293 292 292 292 292 293 292 292 292
316 316 313 311 310 310 308 305 307 309 310 311 312 312 314 315 314 312 309 305 306 307 309 309 309 310 311 311 312 312 311 311 310 311 311 311 312 311 311 309 308 307 306 304 304 304 304 304 304 303 301 299 298 297 297 298 297 297 296 296 296 296 295 295 295 295 295 295 295 294 294 294 294 293 293 292 292 292 292 292 292 292 292 292 292 292
317 313 306 306 309 311 310 306 307 310 311 312 312 313 314 315 313 312 311 307 308 308 306 308 311 312 314 315 313 312 308 308 308 308 309 309 310 310 309 308 307 308 307 305 305 305 305 305 305 303 302 300 298 298 298 297 297 297 296 296 295 295 295 295 295 294 294 294 294 294 294 293 293 292 292 292 292 292 292 292 291 291 292 292 292 292
316 309 305 309 309 310 312 309 309 312 313 313 313 313 313 313 313 312 311 309 311 312 308 310 312 314 317 317 315 313 311 311 309 308 310 310 310 309 308 307 308 308 307 307 307 307 306 306 305 304 302 301 300 299 298 297 297 296 296 296 295 295 295 294 294 294 294 294 294 293 293 293 292 292 291 291 291 291 291 291 291 291 291 292 292 291
314 305 306 313 311 311 313 311 312 311 312 314 312 313 312 311 311 311 310 310 313 314 310 310 312 314 315 313 313 314 314 314 313 312 313 312 311 310 309 308 309 309 308 307 308 307 307 307 305 305 304 303 302 300 299 298 296 296 295 295 295 295 294 294 294 294 294 294 293 293 292 292 292 291 291 291 292 292 292 292 292 292 292 292 292 291
312 306 306 310 312 312 312 313 313 310 312 315 310 310 311 309 310 310 310 310 312 312 309 309 311 312 313 312 313 314 313 314 314 314 314 314 314 312 310 309 309 310 310 310 310 309 309 308 307 307 306 305 303 302 300 298 296 295 295 294 294 294 294 293 294 293 293 293 293 292 292 292 291 291 291 291 291 292 292 292 292 292 292 291 291 291
311 311 310 310 310 311 312 314 313 311 313 313 306 305 307 308 309 309 310 311 310 309 310 311 311 312 313 313 312 312 313 313 313 314 314 315 315 313 311 310 311 311 311 311 312 311 311 310 309 308 306 305 303 302 301 299 297 295 295 294 294 293 293 293 293 293 293 292 292 292 291 291 291 291 291 291 291 291 292 292 292 292 291 291 290 290
310 309 309 311 311 312 313 309 307 311 313 307 303 305 306 306 307 307 308 309 309 309 311 312 311 312 314 314 311 309 311 313 314 314 314 315 316 313 311 311 313 313 312 312 312 312 312 311 309 307 305 304 303 302 300 298 297 295 294 294 293 293 293 293 293 293 292 292 291 291 291 291 290 290 290 291 291 291 291 291 291 291 290 290 290 289
307 304 305 310 311 310 309 303 301 306 307 303 305 308 308 307 305 305 307 308 310 312 313 313 313 312 313 315 313 311 312 313 314 314 314 315 315 312 312 313 315 314 314 314 313 313 312 311 308 306 304 303 302 301 300 298 297 295 294 294 293 293 293 292 292 292 292 291 291 291 290 290 290 290 290 291 291 291 291 290 290 290 289 289 289 289
308 306 307 308 306 305 307 304 301 301 302 304 308 310 311 311 308 307 307 308 311 314 313 312 313 312 313 314 313 313 313 312 313 314 314 315 316 313 313 315 315 315 315 314 314 314 312 311 310 307 306 304 303 301 300 298 297 295 294 294 293 293 293 292 292 291 291 291 291 290 290 290 290 290 290 290 290 290 290 290 289 289 289 289 289 289
312 311 310 308 305 305 310 309 305 302 302 306 309 310 313 314 312 312 311 311 312 314 311 308 310 312 312 313 313 313 313 312 313 314 314 316 316 315 314 315 315 315 315 314 314 314 313 312 311 310 309 308 306 304 301 300 298 296 294 294 293 293 293 292 291 291 291 290 290 290 290 290 289 290 290 290 290 289 289 289 289 288 288 288 289 289
314 312 309 309 308 306 310 312 311 308 305 307 310 312 314 314 314 315 313 311 313 315 310 306 308 311 311 312 313 312 313 313 313 313 314 315 315 315 314 315 315 315 314 314 314 314 314 313 312 312 311 310 309 307 305 302 300 298 295 294 293 293 293 292 291 291 290 290 290 290 290 289 289 290 290 289 289 289 289 288 288 288 288 288 289 289
314 314 310 311 311 309 309 312 314 311 306 307 310 312 313 314 313 314 312 311 312 314 311 307 309 312 311 312 314 313 313 314 314 313 313 313 313 313 313 313 314 314 314 314 314 314 314 314 313 312 311 311 310 309 308 305 302 300 297 295 294 293 292 292 291 291 290 290 290 290 289 289 289 289 289 289 289 288 288 288 288 288 288 289 289 289
313 315 313 310 308 308 309 311 311 311 308 307 308 310 312 313 312 312 313 312 311 312 312 309 310 312 312 313 314 314 314 313 313 313 312 312 311 310 310 311 313 314 314 314 314 314 314 313 312 311 311 310 309 308 308 307 305 302 299 296 294 293 293 292 291 290 290 290 290 289 289 289 289 289 289 289 289 288 288 288 288 288 288 289 289 289
313 314 312 307 305 305 305 307 307 310 311 307 307 310 311 311 312 312 313 311 308 310 313 312 312 313 312 313 313 313 313 311 311 312 311 311 311 309 308 310 312 313 313 314 314 314 314 313 312 312 311 310 309 309 308 308 306 304 301 298 295 293 293 292 291 290 290 290 289 289 289 289 289 289 289 289 288 288 288 288 288 288 288 289 289 289
314 314 312 309 310 304 299 302 305 305 307 308 308 310 309 308 310 310 312 312 310 313 314 313 313 313 313 314 313 311 311 311 312 312 311 310 309 308 308 311 313 312 313 313 313 314 314 313 312 312 312 311 310 309 308 307 305 303 300 298 296 294 293 292 291 290 290 289 289 289 289 289 289 289 289 288 288 288 288 288 288 288 288 288 289 289
315 314 313 307 307 303 298 303 307 303 303 305 305 307 308 310 311 310 311 312 313 314 314 314 314 313 313 313 313 312 311 312 311 311 311 309 309 308 307 310 311 310 311 313 313 313 314 313 313 312 312 311 310 309 307 306 304 302 299 297 295 294 293 292 291 290 290 289 289 289 289 288 289 289 288 288 288 288 288 288 288 288 288 288 288 288
314 314 314 305 302 304 302 305 309 307 303 302 304 304 305 308 311 311 310 311 313 313 313 315 315 314 314 314 315 314 313 314 313 312 311 310 309 308 307 309 309 308 310 313 313 313 313 313 313 312 312 311 310 309 307 306 304 301 299 296 294 293 292 291 291 290 290 289 289 289 288 288 288 288 288 288 288 288 288 288 288 288 288 288 288 288
313 313 314 307 301 305 306 306 310 310 306 304 305 306 305 306 308 308 309 310 311 312 312 314 314 314 315 315 315 314 313 314 314 313 313 312 310 309 308 309 310 310 311 312 313 314 313 313 313 312 311 311 309 308 307 306 304 301 298 296 294 293 292 291 291 290 289 289 289 288 288 288 288 288 288 288 288 288 288 288 288 288 288 288 288 288
313 313 314 311 307 308 310 310 310 312 310 307 307 308 307 308 308 308 310 310 310 312 313 313 314 314 314 316 315 313 314 315 315 315 315 313 310 309 309 309 311 312 313 313 313 314 313 313 312 312 311 310 309 308 308 306 304 301 298 296 294 293 292 291 291 290 289 289 288 288 288 288 288 288 288 288 288 288 288 288 288 288 288 288 288 288
314 314 314 314 313 311 308 306 305 308 311 310 308 309 309 309 309 310 312 312 310 310 311 312 312 313 315 317 316 314 315 315 314 316 316 312 310 311 312 311 312 312 313 314 314 314 313 313 312 311 311 310 309 308 308 306 305 302 299 296 294 293 292 291 291 290 289 289 288 288 288 288 288 288 288 288 288 287 287 288 288 288 288 288 288 287
313 315 314 313 314 312 306 302 301 303 307 309 308 308 309 309 310 311 311 310 311 311 311 311 312 313 314 317 316 315 316 315 312 312 314 312 311 313 314 314 313 314 314 314 314 313 313 312 312 311 311 310 309 308 307 306 304 301 298 295 294 293 292 291 290 290 289 288 288 288 288 288 288 288 288 288 287 287 287 288 288 288 288 288 287 287
312 315 315 313 314 313 310 306 304 303 304 307 307 307 308 309 310 310 309 308 310 312 311 312 312 313 314 317 315 313 313 314 312 310 310 310 311 312 313 314 314 314 314 314 313 313 312 312 312 311 310 310 309 308 307 306 303 301 298 295 294 292 291 291 290 289 289 288 288 288 288 288 288 288 288 287 287 287 288 288 288 288 288 287 287 286
314 316 314 312 313 313 312 312 310 307 304 306 307 306 307 309 309 309 309 309 311 311 311 311 312 312 313 315 314 312 312 312 311 308 307 308 309 310 311 313 313 314 314 313 313 313 312 311 311 310 310 309 308 307 306 305 303 300 297 295 293 292 291 290 290 289 288 288 288 288 288 288 288 288 287 287 287 287 288 288 288 288 287 287 286 286
315 316 312 312 312 312 312 312 312 309 306 306 307 307 307 309 309 310 310 311 312 311 311 312 312 312 313 312 312 312 312 312 311 310 309 308 308 309 310 311 313 313 313 313 312 312 311 310 310 309 308 308 307 306 305 304 302 299 297 294 293 291 291 290 289 289 288 288 288 288 288 288 288 287 287 287 287 288 288 288 288 287 287 286 286 285
314 314 312 312 312 312 312 311 311 311 309 308 308 308 307 308 310 311 311 311 311 311 311 312 313 313 313 311 312 312 312 311 312 312 311 310 309 309 309 310 311 311 311 311 311 310 310 309 309 308 307 306 306 305 303 302 300 298 296 294 292 291 290 290 289 288 288 288 288 288 287 287 287 287 287 287 287 288 288 288 287 287 286 286 286 285
313 313 313 313 312 312 311 311 311 311 310 309 310 309 308 308 309 311 311 311 311 311 312 312 313 313 312 311 312 312 311 312 312 311 312 311 310 309 309 309 309 309 309 309 308 308 308 308 308 308 306 305 304 303 302 300 298 296 294 293 292 291 290 289 289 288 288 288 287 288 287 287 287 287 287 287 287 288 288 287 287 287 286 286 285 284
311 311 312 312 311 311 311 311 311 311 310 310 310 310 310 309 309 310 310 310 311 311 312 312 312 312 312 312 312 312 312 312 311 311 311 310 310 310 309 309 309 309 309 308 307 308 308 308 308 307 304 304 303 303 301 300 298 296 294 292 291 290 290 289 288 288 288 287 287 287 287 287 287 287 287 287 288 288 287 287 287 286 286 286 285 284
309 310 311 310 311 311 311 311 311 310 310 310 310 310 310 309 309 310 310 310 310 310 310 310 311 311 311 311 311 311 311 311 311 310 310 310 310 310 310 310 310 309 309 308 308 308 308 308 307 305 304 304 304 302 301 299 298 296 293 292 291 290 289 289 288 288 287 287 287 287 287 287 287 287 288 287 288 288 287 287 286 286 286 285 284 283
309 310 310 310 311 311 311 310 310 310 310 310 310 310 310 309 309 310 310 310 310 310 310 310 311 310 310 310 310 310 310 310 310 310 310 310 310 310 310 309 310 309 309 309 309 308 308 307 307 306 305 305 304 302 301 300 298 296 293 292 291 290 289 289 288 287 287 287 287 287 287 287 287 288 288 287 288 287 287 286 286 286 286 285 284 283
309 310 310 310 311 311 311 311 310 311 312 311 310 310 310 310 310 310 311 311 311 311 311 311 311 310 310 311 311 311 311 310 310 310 310 310 310 310 310 309 309 309 309 309 309 309 308 307 307 307 307 306 304 303 302 300 298 296 294 292 291 289 289 288 287 287 287 287 287 287 287 287 288 288 288 288 288 287 287 286 286 286 285 284 283 282
309 309 309 310 311 311 311 311 310 311 312 312 311 311 310 310 310 311 311 311 311 311 311 311 311 311 311 311 311 311 311 311 311 311 310 310 310 310 310 309 309 309 309 310 309 309 308 308 307 307 306 305 303 302 301 299 297 296 294 292 290 289 288 288 287 287 287 287 287 287 287 288 288 288 288 287 287 287 286 286 286 285 285 284 283 282
309 309 309 310 311 311 311 311 311 313 312 312 311 311 310 310 310 311 311 311 310 311 311 311 311 311 311 311 311 311 311 311 311 310 310 310 310 309 309 309 309 310 310 310 309 309 308 307 306 306 305 304 302 300 299 297 295 294 292 291 289 289 288 287 287 287 287 287 287 287 287 288 288 288 288 287 287 286 286 286 286 285 284 283 282 281
309 309 309 310 310 311 311 311 312 313 311 310 310 310 310 310 310 310 311 311 310 310 310 310 310 310 310 311 311 311 310 310 309 309 309 309 309 309 309 309 310 310 309 309 309 308 308 307 306 305 305 303 302 299 298 297 295 293 291 290 289 288 288 287 286 286 287 287 287 287 288 288 288 288 287 287 286 286 286 286 285 284 284 283 281 281
309 309 310 310 310 311 311 310 312 312 311 310 311 310 310 310 310 311 312 311 309 309 309 309 309 310 310 310 310 309 309 309 308 309 309 309 309 309 309 309 310 310 309 309 308 307 307 306 305 305 303 302 301 300 298 297 294 292 290 289 288 288 287 286 286 286 287 287 287 288 288 288 288 287 287 286 286 286 286 285 284 284 283 282 281 281
309 309 310 310 311 312 311 311 311 312 311 311 311 311 310 311 310 311 311 310 310 309 309 309 310 310 309 309 309 309 309 309 309 309 309 309 309 309 309 309 309 309 309 308 307 307 307 307 306 305 304 302 300 299 299 296 294 291 289 288 288 287 287 286 286 286 287 287 287 288 288 288 287 287 286 286 285 285 285 284 283 283 283 281 281 280
309 308 309 310 311 311 312 312 312 312 312 312 311 310 310 311 311 310 310 310 310 309 309 309 309 309 309 309 309 309 309 309 309 309 309 309 309 309 309 309 309 309 308 308 308 307 307 307 306 305 304 302 301 300 298 296 293 291 289 288 288 287 286 286 286 287 287 287 287 288 288 287 287 286 286 285 285 285 284 283 283 283 282 281 280 280
309 308 309 310 310 310 311 312 312 312 312 312 311 310 310 310 310 310 310 310 310 309 310 309 309 309 309 309 309 309 309 309 309 309 309 308 308 308 309 309 308 308 308 309 309 308 308 307 307 306 305 304 303 301 298 295 292 290 289 288 287 287 286 286 287 287 287 287 287 287 287 287 286 286 285 284 284 284 283 282 282 282 281 280 280 279
310 309 309 310 310 310 311 311 311 311 311 312 311 310 309 309 309 310 311 311 309 310 310 309 309 309 309 308 308 308 309 308 308 309 309 308 307 307 308 307 307 307 308 308 308 308 308 307 307 306 304 303 302 300 297 294 290 289 288 287 287 286 286 286 287 287 287 287 287 287 287 286 286 285 284 284 284 283 283 282 282 281 280 279 279 279
310 310 310 311 310 310 311 311 311 311 312 311 310 309 308 309 310 311 311 310 310 310 310 310 310 309 309 309 308 308 309 309 308 309 309 309 308 307 307 306 306 306 307 307 307 307 307 306 305 304 302 301 300 298 295 292 289 288 287 287 286 286 286 286 286 287 287 287 287 287 286 286 285 284 284 283 283 283 282 282 281 280 279 279 279 278
312 311 311 311 311 311 311 311 312 312 313 311 310 309 308 309 311 311 310 310 310 310 309 310 309 309 309 308 308 308 308 308 309 309 309 309 309 308 306 306 306 305 305 305 305 306 305 305 304 303 301 300 298 296 293 291 289 287 287 286 286 286 286 286 286 287 287 287 287 286 286 285 285 284 283 283 282 282 281 281 280 279 279 278 278 277
312 312 311 310 311 312 312 312 312 312 311 310 311 310 309 309 310 310 310 311 310 310 310 309 309 309 309 308 308 308 308 308 308 308 308 308 309 308 307 306 305 304 304 304 304 304 304 303 302 301 300 299 297 295 293 291 289 287 286 286 286 286 286 286 286 286 287 287 287 286 286 285 284 283 283 282 282 281 280 279 279 278 278 278 277 277
312 312 312 311 311 312 312 311 311 310 310 310 310 310 310 309 309 310 310 310 310 310 310 309 309 309 309 308 308 307 307 307 307 307 308 308 308 307 306 305 304 303 302 302 302 301 301 301 301 300 298 297 295 293 291 290 288 287 285 285 286 286 286 286 286 287 287 287 287 286 285 284 283 283 282 282 281 280 279 278 278 278 277 277 276 276
312 311 312 312 311 311 311 311 310 310 310 310 310 310 310 310 310 309 309 310 310 310 310 309 310 309 309 308 307 307 307 307 307 307 307 307 307 306 306 305 304 304 302 301 300 299 299 298 298 298 297 294 292 290 289 288 287 286 286 285 286 286 286 286 287 287 287 287 287 286 285 284 283 282 281 281 279 278 278 277 277 277 277 276 275 275
311 311 311 312 312 312 312 312 311 311 311 311 310 310 309 309 309 309 309 309 309 309 309 309 309 309 309 308 307 307 307 307 307 306 306 306 306 305 305 304 304 304 303 301 299 299 298 296 296 295 295 294 291 290 289 287 286 285 286 286 286 286 286 286 286 287 287 287 286 285 284 283 282 281 280 279 278 277 277 277 277 277 276 275 274 274
310 310 311 311 311 311 311 311 311 311 311 311 311 310 310 309 309 309 309 308 308 308 309 309 309 308 308 307 307 306 307 307 306 306 305 305 305 305 304 304 303 303 302 299 298 297 297 297 297 296 295 294 292 290 289 287 285 285 286 286 286 286 286 286 286 287 287 286 285 284 283 282 281 280 279 278 277 277 277 277 277 276 275 274 274 274
309 309 309 310 310 310 310 310 311 311 311 311 311 310 310 309 309 309 309 308 308 308 308 308 308 308 307 307 307 306 306 306 306 306 305 304 304 304 304 303 302 302 301 299 298 297 296 297 297 295 294 294 293 291 288 287 285 285 285 286 286 286 286 286 286 286 286 285 284 283 282 281 280 278 278 277 276 276 276 276 276 275 274 274 273 273
306 307 308 309 309 309 309 310 311 311 311 311 310 310 310 310 309 308 308 308 308 308 307 307 307 307 307 307 307 307 306 305 306 306 304 304 304 303 303 303 301 300 300 298 296 296 295 295 295 294 294 294 293 291 289 286 285 285 285 285 286 286 286 286 286 286 285 284 283 283 281 280 278 277 276 276 276 276 276 276 276 275 274 273 273 273
304 306 308 308 308 308 309 310 310 309 309 309 309 309 309 308 308 308 308 308 308 308 307 307 307 307 307 307 307 306 305 305 305 305 304 304 304 303 303 302 301 300 299 297 295 294 293 292 291 292 293 293 292 290 288 286 285 284 285 285 286 286 286 286 286 286 284 283 283 282 280 278 277 276 276 276 275 275 275 276 275 274 273 273 273 272
Wind_Speed
4 4 5 9 10 8 9 12 9 2 0 2 2 4 8 8 10 11 2 5 4 5 10 15 16 17 20 19 21 30 24 19 24 25 29 28 23 30 37 35 33 34 36 34 34 36 38 40 42 44 45 45 45 44 42 41 39 38 37 36 35 34 32 31 30 28 26 25 24 23 21 20 17 16 14 12 11 10 9 9 9 11 13 16 18 20
3 6 11 13 9 2 4 7 5 2 2 4 5 5 7 8 10 9 1 4 5 3 8 12 15 17 19 19 22 28 22 20 26 24 27 27 25 34 37 32 31 32 33 31 31 34 35 38 41 44 46 46 46 46 44 43 41 39 38 36 35 34 33 32 31 29 28 27 26 25 23 20 19 17 15 13 11 10 9 9 10 12 14 16 18 20
3 10 13 5 4 6 4 2 5 4 4 3 4 3 6 6 6 7 1 3 4 4 7 9 13 16 19 19 23 25 18 20 27 25 26 28 26 30 29 27 28 28 29 29 29 30 32 35 39 43 46 47 48 47 46 44 42 41 38 37 36 35 34 33 32 30 29 28 27 25 23 21 19 17 15 13 12 11 10 10 11 12 14 16 19 21
5 9 7 4 8 6 3 3 5 3 3 5 4 4 8 4 2 5 1 2 4 5 8 11 12 14 15 17 19 20 16 18 24 25 27 30 30 29 24 23 26 26 27 27 27 27 28 32 36 41 46 48 48 48 46 45 44 43 40 38 38 36 35 34 32 31 30 29 28 26 23 21 18 17 15 14 13 12 11 11 12 13 15 17 19 21
9 4 4 6 5 6 3 4 7 5 4 6 7 8 10 6 6 8 2 4 5 6 5 9 12 11 8 9 9 8 7 10 15 19 24 29 32 31 27 25 25 25 25 25 24 25 25 29 33 38 44 47 49 49 48 48 47 44 41 39 38 37 35 34 33 32 32 31 28 25 23 21 19 17 16 15 13 12 11 12 13 15 16 18 19 21
10 3 7 5 2 5 5 5 7 8 5 5 8 13 14 9 8 7 3 6 6 4 2 5 11 7 4 5 5 3 2 4 6 9 15 24 26 26 28 28 25 24 24 22 21 21 22 25 29 34 39 44 47 49 49 49 47 44 41 39 38 36 35 34 34 33 32 31 28 26 24 21 19 17 16 15 13 12 12 13 14 16 17 19 20 21
4 2 3 3 4 6 6 6 7 8 5 5 4 7 10 9 7 6 2 3 5 4 0 3 7 8 2 6 5 3 3 5 6 7 12 21 23 23 27 27 23 23 23 21 20 20 20 23 26 30 34 38 43 46 48 48 46 43 41 39 38 37 36 35 35 34 33 31 29 27 24 22 19 17 16 15 13 13 13 14 15 16 18 20 20 22
3 4 3 4 5 6 6 6 7 11 6 4 1 2 4 5 5 5 4 5 5 4 2 3 7 12 8 8 9 7 8 9 10 13 13 16 22 25 28 27 22 21 20 19 19 19 20 22 24 26 28 32 37 42 45 46 46 44 42 39 38 38 37 37 36 35 34 32 29 27 24 22 19 17 16 15 14 14 15 16 17 17 18 20 21 22
2 5 7 8 6 6 7 2 6 13 7 1 2 2 4 4 3 4 4 6 4 4 5 7 9 10 9 7 7 7 10 11 12 16 14 15 21 24 26 25 20 18 18 17 17 17 17 19 21 23 25 28 32 37 41 44 45 45 43 40 40 39 38 38 37 36 34 32 29 27 25 22 19 17 16 16 15 15 16 17 18 18 18 19 21 21
2 3 5 7 6 6 4 3 2 9 5 2 4 4 5 3 3 2 4 4 3 4 7 8 10 8 9 5 7 2 6 10 11 12 12 14 19 21 21 20 16 16 17 15 15 15 15 17 19 20 23 25 29 34 37 42 44 44 44 43 42 41 41 39 38 36 34 32 29 27 24 22 19 17 16 16 16 16 17 18 18 18 18 19 20 21
2 2 0 4 6 2 6 5 4 1 3 6 5 3 3 2 2 1 2 1 5 7 8 13 16 12 9 2 9 6 6 10 10 9 10 11 15 19 18 17 17 16 15 13 13 14 15 17 18 20 22 25 28 32 36 41 44 45 45 45 44 44 43 41 39 37 34 32 29 27 24 22 19 17 16 16 17 18 18 18 18 18 19 19 20 20
2 3 2 4 5 6 7 5 5 4 2 4 3 1 1 2 2 2 2 2 6 7 4 8 12 14 11 4 7 7 5 8 10 9 10 10 12 18 19 18 19 18 15 14 14 15 17 18 18 20 22 25 27 31 36 40 43 46 46 47 47 47 45 43 40 38 35 33 29 27 24 21 19 18 17 17 18 18 18 18 18 18 19 19 20 20
3 5 3 2 5 7 5 3 3 2 2 3 3 3 3 4 2 3 4 4 7 6 2 3 3 8 14 10 7 7 5 7 9 8 11 11 11 18 23 23 23 22 19 17 16 17 18 18 19 20 21 24 26 29 33 38 42 46 47 49 49 49 47 45 42 39 36 33 29 27 24 21 19 18 18 18 19 18 17 17 17 18 19 19 20 21
3 1 5 4 3 9 11 7 4 4 6 8 7 6 5 4 2 5 5 3 5 5 2 5 2 6 10 8 13 18 15 13 13 15 20 20 18 20 24 26 26 25 23 21 19 19 20 20 18 19 20 22 23 25 28 33 38 43 48 50 51 51 49 47 43 40 37 33 29 26 23 21 20 19 19 19 18 17 17 17 17 17 18 20 21 21
5 5 7 8 3 12 16 10 3 5 7 8 5 3 5 5 4 6 5 5 6 6 2 4 2 5 4 2 7 14 16 18 20 26 29 28 26 21 19 23 26 27 27 24 22 22 22 21 19 19 20 21 21 22 25 29 34 40 47 51 53 53 51 48 44 41 37 33 29 26 23 22 21 20 19 18 17 17 17 17 17 17 19 20 22 23
6 7 4 3 2 12 12 5 5 6 5 4 2 2 5 4 5 4 4 2 3 7 5 5 4 7 3 2 1 3 6 12 17 24 25 25 31 27 19 22 26 29 29 26 25 26 24 22 20 21 22 23 24 25 26 28 32 38 44 50 54 54 52 49 46 41 37 33 29 26 24 23 22 20 19 17 16 17 17 17 17 18 20 22 23 24
5 4 4 3 1 5 3 1 3 2 3 5 3 5 3 1 3 5 4 1 1 6 8 4 7 9 5 5 6 6 6 8 9 14 15 20 31 27 23 29 31 30 30 28 27 27 26 23 21 21 23 24 26 27 27 28 31 35 41 48 53 54 53 50 46 42 37 33 29 27 25 23 22 20 18 17 16 17 17 17 18 19 21 23 24 26
4 3 3 4 1 2 1 3 2 3 1 5 4 5 2 2 1 3 4 1 3 8 7 6 12 13 9 6 4 7 8 9 10 11 9 16 23 20 26 37 37 34 32 29 29 29 27 23 21 22 23 25 27 27 27 29 32 36 41 47 52 54 54 50 46 42 37 33 30 27 26 23 21 19 17 17 17 17 17 18 19 21 22 24 25 27
3 3 3 2 2 4 2 1 3 1 1 1 2 1 1 2 3 3 3 4 6 7 6 12 17 15 10 6 3 8 11 12 13 10 7 11 14 16 29 41 40 37 34 33 33 32 28 24 21 21 22 25 27 28 29 30 33 37 41 47 51 53 52 49 45 41 37 34 31 28 26 23 20 19 17 17 17 17 17 19 21 22 23 24 26 29
2 4 3 1 1 3 3 4 6 5 2 1 1 2 1 2 3 3 3 3 5 7 7 13 17 13 6 5 6 10 12 12 12 9 8 10 12 20 33 41 40 36 35 36 35 31 28 24 21 22 24 27 28 28 30 32 34 37 41 46 51 52 51 48 44 42 38 35 32 29 26 23 21 19 18 18 17 17 18 20 21 22 24 25 28 30
2 3 4 1 1 2 5 7 10 10 8 6 6 6 4 2 0 2 3 2 3 6 6 8 13 12 2 4 6 9 10 10 9 8 8 8 14 25 33 37 37 34 34 35 32 28 27 24 22 24 26 28 30 30 31 33 35 38 41 45 50 51 50 48 45 42 39 35 32 29 26 23 21 20 18 18 17 18 19 20 22 23 25 26 29 31
3 4 6 4 3 6 7 6 5 5 7 9 9 9 9 7 4 3 6 4 2 6 8 7 10 13 4 4 3 5 6 6 7 8 7 8 17 27 31 35 35 33 33 31 28 28 27 26 25 26 28 30 30 31 32 34 36 38 41 45 49 51 51 49 47 43 39 36 32 29 26 24 22 20 19 18 18 19 19 21 22 24 26 28 30 32
5 2 6 8 6 5 3 0 2 4 2 3 4 6 8 8 8 8 8 5 3 6 9 6 8 12 4 5 2 3 4 4 7 9 6 9 18 22 24 29 31 30 30 27 27 29 28 28 28 29 31 31 31 33 34 36 37 39 41 45 49 51 51 50 47 43 39 36 33 30 27 24 22 20 19 19 19 19 20 21 23 25 27 29 31 32
3 1 5 7 6 4 0 3 1 2 1 3 6 7 8 9 10 8 4 3 2 6 10 5 6 12 4 3 4 5 3 3 8 12 10 11 18 21 21 24 27 28 27 25 28 30 29 30 32 34 35 34 34 35 36 37 38 40 41 44 48 51 51 50 47 43 39 36 33 31 28 25 23 21 20 19 19 19 20 22 23 25 27 29 31 32
5 3 5 5 6 6 4 3 3 3 5 5 6 8 10 11 11 4 2 1 4 12 15 7 8 13 4 2 6 2 2 4 5 8 10 11 16 22 24 26 27 27 27 27 31 33 33 34 35 37 37 36 37 37 37 38 39 40 42 44 48 51 51 50 47 43 40 37 34 31 28 25 23 21 20 19 19 19 20 22 23 25 27 29 30 31
8 5 7 8 9 9 10 10 4 4 7 5 3 7 11 13 14 8 4 6 10 15 15 9 11 14 8 9 12 3 2 6 5 4 9 14 18 22 24 26 28 29 30 32 34 35 35 35 36 38 39 38 39 38 38 39 39 40 42 44 47 50 51 50 47 43 40 37 35 31 28 25 23 21 20 19 19 19 20 22 23 25 27 28 30 30
4 5 12 15 15 13 15 15 5 6 7 7 7 9 12 15 18 12 8 11 10 6 9 13 17 18 15 19 23 15 7 9 8 5 8 17 23 25 26 26 27 31 34 34 34 35 35 37 40 42 40 39 39 39 39 40 40 41 42 45 48 50 51 50 46 43 40 37 34 31 28 25 22 20 19 18 18 19 20 21 23 24 26 28 29 28
2 6 14 19 20 18 18 23 18 8 8 10 9 11 13 15 17 16 16 18 9 1 8 18 21 19 16 19 27 25 17 15 15 11 13 20 23 23 24 26 29 34 36 36 36 37 39 43 44 43 40 38 39 39 40 40 41 42 43 46 49 51 52 50 47 43 41 37 34 31 28 25 22 20 18 17 18 19 20 21 22 24 26 27 27 27
3 7 11 15 19 19 19 24 26 20 14 11 11 12 13 15 19 22 23 20 12 10 16 20 21 19 16 20 28 25 17 14 17 20 25 27 22 17 18 24 30 34 35 37 39 40 43 45 43 42 40 38 38 39 40 41 42 43 45 48 50 52 53 50 47 44 41 38 34 31 27 24 21 19 17 17 18 19 19 20 22 23 25 26 25 25
2 6 10 13 16 18 19 23 25 22 19 18 17 14 14 19 22 20 19 18 19 21 22 21 22 20 18 23 25 19 17 19 23 28 32 33 31 27 26 29 34 37 37 38 39 41 43 43 41 41 39 37 37 39 40 42 42 44 48 50 52 54 54 51 47 44 41 38 34 31 27 23 20 18 17 17 17 18 19 20 21 23 25 25 24 24
4 8 11 12 12 14 19 24 25 23 21 20 18 15 19 25 22 17 19 20 20 21 21 20 20 18 20 23 20 18 25 28 27 28 31 36 39 33 28 32 37 39 38 36 38 41 41 41 40 40 39 38 39 40 41 42 43 45 49 52 54 55 54 51 48 44 41 38 34 30 26 23 20 17 16 17 17 18 19 20 21 23 24 23 23 23
5 9 10 9 10 12 17 22 23 22 20 14 12 18 26 26 20 19 22 20 17 18 20 18 15 15 18 19 17 20 26 25 21 22 27 35 37 28 24 31 37 38 36 35 38 39 39 39 40 40 40 40 40 41 41 42 43 46 50 53 55 56 54 51 48 44 41 37 33 30 26 22 19 17 17 17 17 18 19 20 21 23 23 22 23 22
5 6 7 8 8 11 17 20 17 14 12 9 14 24 27 24 22 25 25 23 22 19 16 13 12 15 17 18 20 21 21 19 19 22 28 33 32 27 28 34 36 37 38 39 40 40 39 40 41 40 40 39 39 39 40 41 43 46 50 53 56 56 54 50 47 44 40 36 33 29 25 21 19 17 17 17 17 17 18 20 21 22 22 22 22 22
7 7 7 6 6 11 15 14 11 9 11 14 17 20 23 26 29 29 26 26 23 17 14 13 16 19 20 20 22 20 18 21 26 32 40 40 32 29 34 37 38 40 43 43 40 40 41 41 40 39 37 36 35 36 37 39 42 45 49 53 55 55 53 50 47 43 39 36 32 28 24 21 19 18 17 17 17 17 18 19 20 21 21 22 22 22
9 10 9 6 6 9 9 8 9 12 13 13 12 14 21 27 30 29 28 26 21 17 18 21 23 24 23 22 24 23 24 29 32 40 49 45 34 31 35 39 41 42 42 41 39 40 40 38 36 35 33 32 33 34 35 38 41 44 48 52 54 53 51 49 46 42 39 35 31 27 24 20 19 18 17 16 16 16 18 19 19 19 20 21 22 22
12 11 8 6 7 6 5 8 11 8 4 3 7 13 19 20 21 24 24 22 18 16 20 24 24 24 26 27 29 31 32 30 29 41 51 42 31 34 37 39 43 42 38 37 36 36 36 34 32 31 29 29 29 31 33 37 40 44 48 51 53 52 50 48 45 42 38 34 30 26 23 20 19 17 16 15 15 16 17 18 18 18 20 21 21 21
17 12 8 8 9 7 8 11 11 8 3 4 10 14 15 16 19 19 17 14 12 14 20 23 22 24 28 28 29 33 31 20 15 32 46 36 28 33 36 37 39 37 33 31 29 28 28 27 27 25 23 23 25 27 31 34 39 44 49 52 52 51 50 48 45 41 37 33 30 26 23 21 18 17 15 14 15 16 17 16 16 17 19 21 21 21
18 16 12 11 9 9 11 10 9 10 8 11 16 18 18 19 15 10 9 8 8 17 26 24 22 25 26 24 25 25 20 11 8 22 33 24 18 25 29 29 30 27 24 24 22 21 21 20 20 20 19 21 22 24 28 33 39 45 50 53 53 52 51 48 44 40 36 32 29 25 22 20 17 15 14 14 14 16 15 15 15 17 20 21 21 20
22 17 14 13 9 9 11 9 9 11 9 11 18 21 26 26 11 2 6 8 10 23 30 24 23 25 22 23 24 16 11 10 9 18 28 20 13 19 23 23 23 21 19 19 17 16 16 15 16 17 18 20 22 24 28 34 40 47 51 54 54 53 52 49 44 39 35 31 28 24 21 19 16 14 13 13 14 14 14 14 15 17 20 21 21 21
20 13 11 13 11 11 13 11 9 9 5 8 16 21 25 21 9 5 9 11 16 28 31 24 24 25 22 23 21 12 9 12 13 22 34 27 17 20 23 21 21 20 19 19 17 15 16 15 16 19 20 22 24 26 30 35 41 48 53 55 55 54 52 48 42 38 34 30 27 23 20 17 14 13 13 13 13 13 12 13 15 17 20 21 20 21
13 10 12 14 12 14 17 12 9 9 6 10 17 19 13 12 11 10 14 14 17 24 28 25 24 26 26 22 15 11 17 26 30 36 41 33 24 25 25 23 22 22 21 20 19 19 19 18 18 19 20 21 24 27 31 36 43 49 54 55 56 54 50 45 41 37 33 29 25 21 18 15 13 13 13 12 12 12 12 12 15 18 20 20 20 20
8 8 10 12 11 12 14 12 11 10 8 14 20 18 16 14 9 12 18 24 24 22 24 26 24 26 28 24 20 23 31 39 42 41 41 40 37 33 29 26 25 24 23 23 22 22 21 20 19 20 20 21 24 27 32 37 44 50 54 55 54 52 48 43 39 35 31 27 22 19 15 13 13 12 12 11 10 11 12 13 15 18 19 19 19 20
9 7 8 9 9 10 10 10 10 7 10 22 24 15 13 14 16 16 19 27 30 27 26 27 27 29 29 25 26 32 35 38 39 38 39 43 42 38 33 29 27 27 26 26 25 24 24 22 21 21 22 23 25 28 33 38 45 51 54 54 52 49 45 41 37 32 29 24 20 16 14 13 13 13 12 10 9 10 11 12 14 17 19 18 19 19
10 9 7 6 9 10 9 10 12 10 13 26 25 13 14 27 36 35 27 21 24 30 30 27 29 34 35 31 32 34 33 35 37 37 38 41 40 38 36 32 29 28 27 27 27 26 25 25 23 22 23 25 27 30 34 40 46 52 54 53 51 47 43 39 35 31 26 22 18 15 13 12 13 13 11 8 8 9 10 11 13 17 18 18 18 19
13 15 15 12 11 11 10 10 10 10 14 25 29 26 30 41 48 48 39 27 25 31 31 28 29 35 38 38 36 33 32 34 36 37 37 40 40 39 36 34 31 29 28 29 29 28 28 27 25 25 26 27 29 33 38 42 47 52 55 53 49 46 42 37 33 29 25 20 17 14 13 13 13 12 9 7 7 8 9 10 13 16 17 17 17 18
12 16 17 14 12 14 14 12 12 13 16 25 34 40 45 46 43 42 40 36 34 35 34 32 32 33 36 35 32 32 35 37 37 36 37 39 40 39 38 37 34 32 32 32 32 30 29 27 26 26 28 31 34 37 41 44 48 52 54 52 48 44 40 37 32 28 24 20 17 14 13 14 13 10 7 6 6 7 8 10 12 15 15 15 15 17
7 11 12 11 12 14 12 11 14 18 20 22 29 37 42 43 39 37 37 38 41 43 43 40 39 39 35 30 27 30 36 37 35 35 36 38 39 40 40 39 37 37 37 37 36 34 31 30 30 31 33 35 38 41 44 48 51 53 53 50 47 43 40 36 32 27 23 19 16 14 14 14 12 9 5 5 5 6 7 9 12 14 14 14 15 17
5 6 6 8 11 12 12 11 13 19 23 25 25 25 27 33 39 41 42 42 44 46 48 47 47 45 40 35 33 35 37 39 39 38 37 37 39 41 41 41 41 39 38 37 37 36 34 35 35 36 36 37 40 44 48 52 54 54 52 50 47 43 39 35 30 26 22 19 16 15 15 14 11 7 4 4 5 6 7 9 11 13 13 13 15 17
7 5 4 7 9 10 13 14 14 16 21 25 26 23 22 27 32 34 37 39 40 42 45 47 47 45 43 42 41 41 40 41 43 43 40 39 41 43 44 44 42 40 39 39 40 39 39 39 39 39 39 39 41 46 51 55 57 55 52 50 47 42 38 34 29 25 22 19 17 16 15 13 9 6 4 4 5 5 6 8 10 10 10 12 14 16
10 10 8 9 9 9 11 12 11 11 12 16 23 28 26 24 25 26 27 30 32 36 40 42 43 45 46 45 46 46 43 44 47 47 42 41 44 46 46 45 42 40 40 40 41 40 40 40 40 40 41 41 44 49 54 58 59 55 52 49 45 41 37 32 28 25 22 20 17 16 15 12 9 7 6 5 5 5 6 8 9 8 8 10 12 13
12 13 11 10 11 12 14 13 10 8 8 13 23 30 29 28 28 27 27 28 29 31 33 34 35 38 40 40 41 41 40 43 47 47 43 44 47 48 47 47 46 44 43 43 42 42 41 42 42 43 43 45 48 53 57 60 60 56 52 49 44 40 36 31 28 26 23 20 18 16 15 13 11 10 8 6 5 4 5 7 9 9 9 10 11 12
Wind_Direction
184 216 231 236 234 216 201 211 226 267 265 235 248 243 254 258 264 270 246 130 168 240 248 248 254 259 265 269 269 273 268 249 250 252 256 260 258 263 264 259 254 257 263 262 253 246 241 237 232 228 226 225 224 225 225 225 224 224 223 224 224 223 222 222 223 225 227 229 231 231 230 229 228 230 235 239 246 255 266 280 292 298 303 306 307 307
170 228 241 241 240 198 176 203 194 156 176 220 237 249 256 251 261 273 282 133 157 228 255 252 263 262 261 267 267 266 261 253 257 256 258 262 262 265 264 258 257 261 262 258 250 245 240 235 230 227 226 225 224 224 224 224 224 225 225 224 224 223 223 223 224 226 228 230 230 229 228 227 228 231 235 240 247 256 267 279 290 297 303 305 304 305
202 242 247 237 104 89 74 148 180 196 194 211 228 253 264 257 277 281 263 123 157 224 270 272 276 271 263 261 261 261 254 255 262 260 261 264 263 263 262 258 257 256 256 251 245 241 236 234 230 226 226 225 226 226 225 226 226 226 225 223 223 223 223 224 225 227 228 229 229 228 227 227 229 231 234 240 247 256 266 274 284 294 300 303 305 306
213 250 257 101 116 133 88 121 171 188 193 210 210 233 253 250 291 272 254 105 190 229 283 291 282 270 261 254 254 258 253 256 263 260 259 259 258 259 260 259 254 251 251 246 240 237 232 231 229 227 226 225 225 226 226 227 227 226 224 223 223 223 224 225 226 227 228 228 227 227 227 226 228 231 234 239 245 254 264 274 284 291 298 304 307 307
235 239 98 98 142 172 151 156 181 199 213 219 214 227 247 248 239 248 321 341 255 227 267 295 286 264 236 238 254 256 241 250 260 259 258 256 254 255 256 254 252 251 248 241 237 235 230 228 229 228 228 226 226 228 229 229 228 227 225 224 224 224 225 226 226 226 227 227 226 226 226 226 228 231 235 240 247 257 269 281 287 292 299 305 306 305
248 182 120 120 132 172 183 193 198 203 218 232 220 224 240 255 255 254 344 344 290 247 205 327 306 281 169 185 243 251 229 246 243 241 252 258 257 252 250 248 247 248 244 240 238 236 234 231 230 229 229 229 230 231 232 230 230 229 227 225 225 225 225 226 226 226 227 226 225 225 226 227 229 233 237 243 253 263 272 280 286 293 299 303 303 302
243 127 132 166 158 172 207 234 202 186 216 249 219 215 232 247 260 263 278 283 278 277 75 22 303 284 198 180 211 220 250 257 241 234 246 254 256 252 249 246 242 243 238 235 236 236 237 233 230 231 231 232 233 233 234 232 231 229 227 226 225 226 226 226 226 226 226 225 225 226 226 228 231 237 243 249 258 267 273 279 286 293 297 299 300 299
144 124 138 170 168 183 218 242 188 170 206 249 139 141 182 203 223 227 230 240 266 307 286 194 239 273 269 216 222 233 243 258 261 260 259 252 251 251 249 243 238 239 234 229 231 233 236 237 237 237 236 236 235 235 235 233 231 229 227 226 226 227 227 227 227 226 226 225 225 226 228 231 234 239 247 253 261 268 275 282 288 292 294 296 296 295
117 159 174 168 176 204 212 232 160 174 203 292 102 110 123 140 174 181 216 248 272 310 266 205 200 264 271 202 211 244 237 247 254 253 256 255 253 249 246 242 235 231 230 227 229 234 241 246 247 245 242 240 237 237 237 234 232 230 228 226 226 227 228 228 227 226 225 225 225 227 230 233 237 241 248 256 264 270 277 282 287 290 292 292 292 293
68 189 188 165 183 213 189 56 132 193 203 120 127 97 89 92 96 155 237 257 261 267 249 202 177 246 276 175 152 194 221 232 245 246 247 252 254 249 243 237 223 217 221 222 227 236 245 252 253 248 244 241 239 238 237 235 232 230 228 226 226 227 229 229 228 227 225 225 226 229 232 236 238 242 249 258 266 271 276 281 285 288 289 289 290 291
89 108 193 202 206 166 111 81 32 17 119 132 147 115 109 137 106 155 246 247 262 258 225 202 191 213 268 181 151 170 184 206 223 235 244 249 253 249 237 221 206 205 212 213 223 236 242 247 247 243 241 239 238 236 234 233 232 230 228 227 226 228 230 230 229 226 225 225 228 230 233 237 239 244 250 258 266 269 274 280 283 286 287 288 289 291
155 172 204 213 179 116 101 98 56 47 119 154 162 155 226 231 169 187 194 165 248 258 195 196 195 202 238 235 158 171 171 203 218 226 241 245 243 239 225 209 202 202 206 209 221 235 238 240 241 239 239 238 237 234 232 232 231 229 228 226 227 229 230 230 228 226 225 226 228 231 234 236 240 245 251 258 264 268 273 279 282 284 286 288 291 296
196 203 161 145 172 163 153 126 97 85 175 192 175 172 240 264 241 232 221 189 234 257 134 127 161 214 241 248 222 217 210 219 225 230 245 248 244 233 217 209 206 203 206 211 218 233 237 238 240 239 239 240 240 237 233 231 230 229 227 226 227 229 230 230 228 227 226 227 229 231 233 236 239 245 251 257 262 267 273 278 281 284 287 292 297 302
228 242 139 161 208 188 184 183 195 188 176 189 182 180 212 231 239 248 243 234 250 259 153 133 154 247 259 256 231 229 228 223 220 230 242 247 249 237 217 212 209 204 208 212 216 231 238 238 238 238 240 242 243 243 238 234 232 229 227 226 227 229 230 229 228 227 226 227 229 231 233 235 238 244 249 255 260 267 272 275 280 285 291 297 300 304
240 270 173 176 172 171 189 204 176 120 158 190 180 186 222 208 213 247 261 269 286 295 232 155 189 243 259 293 216 218 225 220 219 230 239 245 247 241 221 213 210 207 210 213 218 229 238 239 237 236 239 239 237 239 239 237 234 230 228 227 227 228 229 228 228 227 227 227 229 230 231 234 238 243 247 253 260 265 270 274 281 289 295 299 303 305
240 268 166 140 112 159 180 196 112 107 155 180 109 197 236 217 206 248 290 277 311 308 265 183 220 248 246 302 221 172 220 214 218 230 234 240 243 241 232 221 215 214 214 214 219 228 236 240 238 237 238 236 234 234 235 237 236 232 229 227 227 228 229 228 227 226 226 227 228 229 230 233 237 241 246 253 259 263 269 276 285 293 298 302 306 309
230 269 127 96 358 167 178 42 130 186 177 148 164 200 219 332 213 233 267 107 101 279 266 214 247 265 264 244 198 164 209 207 214 230 224 232 238 238 238 234 227 224 222 222 225 230 238 242 239 238 238 237 236 235 236 238 238 235 231 227 226 227 227 227 227 226 226 226 226 227 229 231 235 239 246 252 257 263 271 281 289 296 301 304 309 311
222 267 179 156 166 171 5 39 78 340 84 138 194 199 131 31 288 244 263 267 229 255 268 267 268 274 271 260 172 158 206 217 221 228 218 231 236 234 239 240 237 233 232 233 233 234 239 239 237 239 242 242 240 238 238 240 239 236 232 229 228 227 226 225 225 224 225 225 225 226 228 230 233 238 244 249 256 265 275 285 292 298 303 307 311 312
199 257 229 166 97 121 132 176 130 11 318 154 260 239 121 205 184 179 225 246 246 247 269 278 279 277 257 246 187 176 202 219 227 225 216 231 233 228 237 243 242 240 238 237 235 234 234 232 235 243 248 246 242 239 238 238 239 236 232 229 228 228 227 225 224 224 224 225 225 225 226 228 231 236 242 248 257 267 278 287 293 299 305 309 312 313
174 241 243 96 37 119 144 215 189 177 188 12 266 203 264 250 191 181 198 221 241 243 266 280 282 280 240 200 201 191 193 210 219 212 212 226 227 226 235 242 244 244 241 236 233 232 230 229 236 246 250 247 243 240 238 238 238 236 232 229 227 226 225 224 224 224 224 224 224 224 224 226 230 236 242 250 260 271 280 288 295 301 306 309 311 312
121 233 239 110 30 197 190 201 198 191 171 160 195 187 182 210 243 291 250 224 244 247 254 265 270 273 261 127 169 176 185 205 204 201 210 219 232 235 237 241 245 246 246 240 232 228 227 230 240 247 250 247 243 240 239 239 238 235 232 228 226 225 224 223 223 223 223 223 222 223 223 226 231 236 244 253 263 273 281 289 296 302 306 308 310 312
171 209 226 209 206 226 223 206 206 212 176 174 190 185 186 187 166 221 233 215 214 236 236 236 256 267 266 107 136 156 178 198 183 194 209 209 228 238 240 242 243 243 245 242 232 227 227 233 242 248 250 248 244 242 241 240 238 235 231 227 225 224 223 223 223 222 222 222 221 222 223 227 232 238 246 256 266 275 283 291 296 301 305 307 310 313
183 159 217 233 236 235 243 43 331 296 232 202 218 199 195 191 181 201 221 217 189 227 244 244 259 267 257 108 149 190 180 194 183 189 199 206 223 236 243 245 244 239 239 238 229 227 231 238 244 249 250 248 245 243 243 241 239 235 230 226 224 223 222 222 222 222 222 221 220 221 223 228 233 239 248 258 267 276 284 292 296 300 303 307 311 314
138 134 213 242 263 254 154 82 56 299 184 213 240 218 199 201 202 207 228 235 202 222 234 227 245 260 262 113 242 239 178 204 199 197 204 207 221 235 240 242 243 237 235 236 230 229 234 239 244 248 249 247 244 244 244 242 239 234 229 225 223 222 222 222 221 221 220 220 219 221 223 228 233 240 249 258 268 277 285 291 295 299 303 308 313 316
168 206 202 224 254 253 249 215 188 205 200 216 236 209 198 207 212 228 322 261 242 238 235 232 245 252 252 171 241 224 125 259 233 212 226 225 227 235 237 239 241 234 231 235 232 231 236 241 245 249 251 248 244 244 244 241 238 234 228 225 222 221 221 221 220 220 219 218 219 220 223 227 232 240 249 258 268 277 284 290 294 299 305 310 314 317
175 203 186 208 230 226 236 240 210 165 194 232 259 201 198 205 206 214 232 224 236 240 235 235 249 255 267 267 259 233 156 254 246 206 241 246 243 241 238 239 239 235 235 237 233 233 239 245 249 253 254 250 245 244 243 240 237 233 227 223 221 220 219 219 218 218 217 217 217 219 222 226 232 239 248 258 269 277 284 289 294 301 308 313 315 317
169 205 194 213 229 224 235 248 249 109 153 206 222 197 198 210 210 211 223 228 233 239 231 235 246 257 269 273 271 266 249 257 255 223 233 243 244 244 242 242 243 244 245 243 237 237 245 253 258 258 255 251 247 245 244 240 236 232 226 222 220 219 218 218 216 216 215 215 216 218 220 225 231 238 248 259 269 277 283 289 297 304 310 314 315 316
196 225 211 223 233 231 240 251 252 229 192 203 207 199 202 211 211 214 227 231 227 236 242 240 246 256 262 267 271 269 263 263 266 265 261 257 254 250 248 250 252 253 254 250 246 248 256 261 262 259 255 252 249 246 244 240 235 230 226 221 218 217 216 216 215 214 214 213 214 216 219 224 229 237 248 260 269 277 284 292 301 308 312 314 315 315
214 240 230 235 242 242 245 253 255 253 243 233 230 225 221 216 212 217 229 232 224 231 244 245 249 256 259 258 260 263 264 262 267 272 273 273 272 260 252 255 258 259 259 256 254 258 262 263 261 259 258 255 250 247 243 237 231 227 223 220 217 216 214 214 213 213 212 212 213 215 218 222 228 238 250 260 270 278 287 296 304 310 313 314 315 316
209 247 246 252 259 257 254 257 259 261 263 261 257 253 245 236 226 223 234 238 230 236 247 253 257 261 260 256 258 267 276 274 275 278 279 280 277 272 270 269 269 269 267 262 261 264 265 263 262 260 258 256 253 248 242 235 230 225 220 217 216 215 213 212 211 211 210 210 211 213 217 221 229 239 251 261 271 280 290 300 307 311 312 314 317 317
223 249 256 259 263 258 253 255 257 259 262 263 264 259 248 245 241 234 240 241 237 245 252 253 259 261 256 257 265 277 278 276 277 279 278 277 276 276 276 273 272 274 274 270 269 268 264 261 260 259 258 259 257 250 242 236 231 224 219 216 215 213 212 211 210 210 209 209 210 213 216 221 229 241 252 262 273 284 293 302 307 310 313 316 318 318
226 247 250 250 254 250 246 248 251 255 260 264 262 250 244 246 245 240 243 244 242 251 256 252 253 253 252 259 267 268 268 271 273 273 271 271 273 277 276 272 274 277 278 279 276 270 263 259 258 260 262 262 257 249 243 238 230 223 218 216 214 212 211 210 210 208 207 208 209 212 216 222 231 242 253 263 275 285 295 303 307 310 314 317 319 318
211 233 238 234 242 248 245 247 253 259 262 253 237 238 242 247 250 249 251 251 246 246 252 254 251 251 256 264 264 262 264 265 265 267 268 271 276 281 278 275 277 280 281 281 278 271 265 263 263 266 266 263 258 252 247 240 232 225 219 216 214 211 209 209 208 207 206 207 209 212 217 223 232 244 254 264 276 287 296 303 306 310 316 319 319 317
212 221 235 230 235 249 249 249 253 244 237 235 232 234 239 242 245 247 249 251 250 247 252 259 260 260 261 260 260 261 263 262 266 270 271 273 280 283 280 277 278 280 282 280 278 275 271 269 268 268 266 263 258 252 245 239 232 226 220 216 212 209 208 207 206 205 205 207 210 213 218 226 234 245 256 266 278 289 297 302 307 312 318 319 317 316
221 222 229 224 230 248 249 243 239 231 231 237 233 230 236 240 245 250 254 256 257 256 256 257 257 259 261 262 263 265 266 268 274 275 272 274 278 276 274 276 277 277 278 280 281 281 277 273 270 268 267 264 256 247 240 234 228 222 217 213 210 207 207 206 204 204 205 207 210 214 220 228 236 246 257 269 280 290 297 301 307 314 318 318 315 314
225 225 226 226 228 235 223 216 226 237 243 217 211 227 238 243 248 251 253 252 249 251 256 255 255 259 262 265 267 269 271 276 279 276 274 274 272 265 264 268 272 274 277 280 282 281 279 276 273 272 270 263 253 242 236 230 224 218 214 211 208 207 206 204 203 204 206 208 211 215 221 229 238 248 260 272 281 290 296 301 309 315 317 315 312 311
222 224 225 227 220 221 228 223 230 261 284 179 204 224 229 229 233 240 247 243 235 244 251 250 252 257 259 263 268 270 275 283 280 274 275 272 261 260 262 263 267 273 276 278 279 279 280 277 273 270 263 254 246 238 233 228 220 215 211 207 206 205 204 203 202 203 206 208 212 217 223 231 240 250 262 274 282 288 296 302 311 316 315 312 309 309
218 218 219 226 216 213 231 233 230 245 236 210 220 231 235 235 234 236 248 235 215 239 247 247 250 255 257 261 265 267 274 282 268 272 277 269 248 253 261 262 266 272 274 275 277 277 276 274 271 267 258 247 241 236 232 225 217 212 208 205 203 202 201 201 201 203 206 208 212 218 224 232 242 253 265 275 280 287 298 305 312 316 313 308 307 309
220 218 218 229 230 218 230 238 228 231 227 212 220 234 245 247 235 159 250 240 222 240 247 247 250 253 254 258 259 260 265 263 257 268 272 266 245 251 260 263 265 270 274 276 279 277 274 274 273 267 257 247 239 233 228 222 215 209 205 203 202 200 199 200 201 203 205 208 213 218 224 233 245 256 266 273 280 289 299 307 314 315 310 305 306 309
218 217 216 226 230 224 231 240 234 239 230 192 211 234 244 236 195 168 245 238 228 239 243 244 250 251 249 253 256 252 245 240 241 258 265 263 254 253 258 260 262 269 274 273 271 269 268 270 270 266 259 249 240 232 225 218 212 207 204 202 200 199 199 199 200 202 205 208 213 219 226 235 247 258 265 272 282 293 301 309 316 313 307 305 307 310
212 210 212 222 225 223 229 236 237 241 212 186 216 229 205 164 161 208 234 229 228 239 239 237 244 249 248 249 247 237 239 240 241 250 258 260 256 253 253 254 259 267 268 262 259 259 259 259 261 262 258 250 240 232 223 215 208 205 203 201 199 198 198 198 199 201 204 208 212 219 228 239 249 258 265 273 285 296 304 314 316 310 305 305 307 311
203 203 211 218 221 224 228 232 243 244 195 193 223 216 165 153 199 224 229 236 239 242 243 239 241 246 246 243 237 236 241 244 243 246 251 253 254 253 251 250 254 259 259 254 250 248 247 246 246 245 242 239 235 229 221 212 206 204 202 200 198 197 196 197 198 200 203 207 213 220 230 243 252 256 263 273 288 298 306 316 316 309 305 305 308 313
189 196 209 205 208 227 232 223 236 244 181 191 215 213 171 193 231 231 231 240 241 241 246 244 243 246 247 243 238 238 240 243 246 247 247 248 249 250 250 251 255 258 259 256 251 246 243 240 238 235 232 228 226 222 216 209 205 203 201 198 196 195 195 195 196 199 202 207 213 223 233 245 252 255 261 275 291 300 309 318 315 307 304 306 310 315
189 196 216 197 189 212 226 213 219 234 206 197 205 212 203 213 225 232 237 242 239 240 243 245 246 249 250 247 244 243 242 245 249 250 247 245 245 246 249 253 255 256 255 253 250 245 240 235 230 226 224 222 220 216 212 209 205 201 198 197 195 194 194 194 195 198 202 206 213 224 235 243 249 253 261 278 293 302 313 318 311 305 304 307 312 319
202 207 223 224 208 209 223 221 215 230 226 210 207 217 223 222 226 233 239 244 245 243 243 244 249 252 251 249 248 247 248 250 251 250 247 245 246 249 251 253 255 257 257 253 247 241 237 234 229 221 215 213 211 207 206 206 204 199 196 195 194 193 193 194 195 198 201 205 213 223 232 239 244 248 259 279 295 305 315 317 310 305 305 309 317 324
233 235 239 239 239 236 234 231 226 229 231 221 216 221 228 231 232 234 238 243 248 248 247 248 251 253 254 251 247 246 248 251 252 251 250 250 250 252 252 252 253 256 256 251 244 238 232 226 222 216 209 204 202 200 200 201 201 200 197 194 193 194 194 194 196 198 201 205 211 219 227 235 239 242 254 278 293 305 313 312 308 304 305 314 325 329
279 272 264 262 268 262 246 233 233 235 234 228 223 225 230 235 238 238 238 241 244 246 249 252 254 256 256 253 248 249 252 255 255 254 255 254 252 252 253 252 252 254 254 250 244 238 229 220 215 212 207 201 198 197 196 196 198 199 198 194 193 194 194 195 197 199 201 204 208 215 223 229 232 233 247 270 285 298 308 310 307 305 310 322 330 333
291 300 287 273 271 268 270 277 274 268 263 256 247 239 236 238 239 238 238 239 241 244 247 250 254 256 257 257 256 255 257 259 260 259 258 257 256 256 256 254 254 255 252 246 241 236 229 224 220 214 208 203 198 196 195 193 193 195 196 195 195 195 194 196 198 199 201 202 204 211 219 222 222 222 235 262 281 296 307 310 309 310 320 332 337 340
301 310 300 286 278 275 282 289 293 293 285 276 271 267 256 249 248 246 245 245 245 247 249 251 253 255 256 258 259 259 259 261 262 262 260 258 259 260 259 258 257 254 249 244 241 236 232 229 224 214 208 205 200 196 194 192 191 192 194 195 195 195 195 197 197 198 199 200 202 208 213 212 209 205 216 246 268 283 299 305 308 317 332 343 348 349
284 271 260 269 271 268 270 269 267 274 277 277 280 280 278 280 285 284 278 270 265 264 263 262 261 261 260 260 261 261 261 262 263 264 262 260 260 261 262 261 256 251 248 244 239 235 232 229 224 215 208 205 202 197 194 191 190 190 192 194 194 195 197 199 198 197 198 197 200 204 204 200 195 192 201 229 255 273 290 297 303 318 340 350 355 356
251 254 252 258 261 262 269 277 284 283 279 287 290 290 293 301 304 300 296 292 286 281 279 278 276 275 273 272 272 270 267 267 268 268 266 265 264 263 262 261 257 252 249 243 235 231 227 222 217 213 210 206 202 197 193 190 188 187 189 192 193 195 198 200 200 198 196 196 197 197 195 192 187 185 194 211 230 258 292 306 316 331 342 348 354 355